{"data":{"norad_id":57620,"epoch":"2026-05-25T00:50:12.653088Z","epoch_age_seconds":72010,"freshness":"FRESH","line1":"1 57620U 23119U   26145.03486867  .00010651  00000+0  39616-3 0  9996","line2":"2 57620  43.0013  10.3162 0001105 266.8879  93.1847 15.27566658154765","mean_motion":15.27566658,"eccentricity":0.0001105,"inclination_deg":43.0013,"raan_deg":10.3162,"arg_perigee_deg":266.8879,"mean_anomaly_deg":93.1847,"bstar":0.00039616,"rev_number":15476,"period_min":94.267572053802,"perigee_km":482.33088159999,"apogee_km":483.84721255639,"semimajor_km":6861.2260470782,"source":"CELESTRAK","updated_at":"2026-05-25T13:38:18.360272Z"}}